This demonstration page uses our WeatherBlox Daily Observations layout. Learn more.

Left ArrowRight Arrow

34.74481, -87.66753

Hourly Observations for May 13, 2017

Temp ( °F °C ) Dew Point ( °F °C ) Humidity (%) Winds ( mph kmh ) Pressure ( in mb ) Visibility ( mi km ) Precip ( " mm )
12:53 am 00:53 Mostly Cloudy 66 18.9 60 15.6 81 81 NE 9 15 29.78 1009 10 16 0.00 0.00
1:53 am 01:53 Mostly Cloudy 66 18.9 59 15 78 78 VRB 6 9 29.77 1008 10 16 0.00 0.00
2:10 am 02:10 Mostly Cloudy 65 18.3 59 15 81 81 ENE 7 11 29.77 1008 10 16 0.00 0.00
2:48 am 02:48 Cloudy 64 18 59 15 83 83 ENE 5 7 29.80 1009 10 16 0.00 0.00
2:53 am 02:53 Cloudy 65 18.3 59 15 81 81 NE 7 11 29.77 1008 10 16 0.00 0.00
3:21 am 03:21 Cloudy 65 18.3 59 15 81 81 NE 8 13 29.80 1009 10 16 0.00 0.00
3:53 am 03:53 Cloudy 65 18.3 59 15 81 81 VRB 3 6 29.77 1008 10 16 0.00 0.00
4:53 am 04:53 Cloudy 64 17.8 57 13.9 78 78 VRB 6 9 29.78 1008 10 16 0.00 0.00
5:28 am 05:28 Cloudy 63 17.2 57 13.9 81 81 NNE 9 15 29.80 1009 10 16 0.00 0.00
5:53 am 05:53 Cloudy 63 17.2 56 13.3 78 78 VRB 5 7 29.79 1009 10 16 0.00 0.00
6:53 am 06:53 Cloudy 63 17.2 56 13.3 78 78 VRB 7 11 29.81 1010 10 16 0.00 0.00
7:53 am 07:53 Cloudy 63 17.2 56 13.3 78 78 NNE 8 13 29.82 1010 10 16 0.00 0.00
8:53 am 08:53 Cloudy 63 17.2 56 13.3 78 78 NNE 10 17 29.84 1011 10 16 0.00 0.00
9:19 am 09:19 Cloudy 64 17.8 56 13.3 75 75 ENE 9 15 29.83 1010 10 16 0.00 0.00
9:53 am 09:53 Cloudy 64 17.8 56 13.3 75 75 NE 7 11 29.86 1011 10 16 0.00 0.00
10:53 am 10:53 Cloudy 66 18.9 56 13.3 70 70 NNE 8 13 29.87 1012 10 16 0.00 0.00
11:53 am 11:53 Partly Cloudy 72 22.2 57 13.9 59 59 VRB 5 7 29.88 1012 10 16 0.00 0.00
12:53 pm 12:53 Mostly Cloudy 75 23.9 57 13.9 54 54 N 9 15 29.86 1011 10 16 0.00 0.00
1:53 pm 13:53 Partly Cloudy 76 24.4 55 12.8 48 48 VRB 7 11 29.86 1011 10 16 0.00 0.00
2:53 pm 14:53 Mostly Sunny 78 25.6 54 12.2 43 43 N 8 13 29.85 1011 10 16 0.00 0.00
3:53 pm 15:53 Sunny 79 26.1 51 10.6 38 38 VRB 7 11 29.84 1011 10 16 0.00 0.00
4:53 pm 16:53 Sunny 79 26.1 48 8.9 34 34 VRB 7 11 29.84 1011 10 16 0.00 0.00
5:53 pm 17:53 Sunny 77 25 46 7.8 33 33 VRB 6 9 29.86 1011 10 16 0.00 0.00
6:53 pm 18:53 Sunny 74 23.3 43 6.1 33 33 NNE 6 9 29.86 1011 10 16 0.00 0.00
7:53 pm 19:53 Clear 70 21.1 44 6.7 39 39 N 3 6 29.87 1012 10 16 0.00 0.00
8:53 pm 20:53 Clear 64 17.8 47 8.3 54 54 N 3 6 29.89 1012 10 16 0.00 0.00
9:53 pm 21:53 Clear 65 18.3 48 8.9 54 54 N 5 7 29.91 1013 10 16 0.00 0.00
10:53 pm 22:53 Clear 63 17.2 50 10 63 63 NE 3 6 29.92 1013 10 16 0.00 0.00
11:53 pm 23:53 Clear 60 15.6 50 10 70 70 Calm 29.93 1014 10 16 0.00 0.00

Powered by AerisWeather